#datetime,building,power
2023-03-20T00:01:00,kyn,60.00
2023-03-20T00:02:00,kyn,36.09
2023-03-20T00:04:00,kyn,71.95
2023-03-20T00:05:00,kyn,48.05
2023-03-20T00:07:00,kyn,71.95
2023-03-20T00:08:00,kyn,24.14
2023-03-20T00:10:00,kyn,71.95
2023-03-20T00:12:00,kyn,60.00
2023-03-20T00:14:00,kyn,60.00
2023-03-20T00:16:00,kyn,60.00
2023-03-20T00:17:00,kyn,35.86
2023-03-20T00:19:00,kyn,60.00
2023-03-20T00:21:00,kyn,60.00
2023-03-20T00:22:00,kyn,36.09
2023-03-20T00:24:00,kyn,60.00
2023-03-20T00:26:00,kyn,60.00
2023-03-20T00:28:00,kyn,60.00
2023-03-20T00:29:00,kyn,36.09
2023-03-20T00:31:00,kyn,60.00
2023-03-20T00:33:00,kyn,71.95
2023-03-20T00:34:00,kyn,23.91
2023-03-20T00:35:00,kyn,36.09
2023-03-20T00:37:00,kyn,60.00
2023-03-20T00:38:00,kyn,35.86
2023-03-20T00:40:00,kyn,60.00
2023-03-20T00:41:00,kyn,36.09
2023-03-20T00:43:00,kyn,71.95
2023-03-20T00:45:00,kyn,60.00
2023-03-20T00:46:00,kyn,36.09
2023-03-20T00:48:00,kyn,60.00
2023-03-20T00:49:00,kyn,23.91
2023-03-20T00:51:00,kyn,60.00
2023-03-20T00:53:00,kyn,71.95
2023-03-20T00:54:00,kyn,24.14
2023-03-20T00:55:00,kyn,35.86
2023-03-20T00:57:00,kyn,72.19
2023-03-20T00:58:00,kyn,23.91
2023-03-20T01:00:00,kyn,48.05
2023-03-20T01:01:00,kyn,23.91
2023-03-20T01:02:00,kyn,24.14
2023-03-20T01:04:00,kyn,47.81
2023-03-20T01:06:00,kyn,48.05
2023-03-20T01:08:00,kyn,48.05
2023-03-20T01:09:00,kyn,23.91
2023-03-20T01:10:00,kyn,36.09
2023-03-20T01:11:00,kyn,23.91
2023-03-20T01:13:00,kyn,48.05
2023-03-20T01:15:00,kyn,48.05
2023-03-20T01:16:00,kyn,23.91
2023-03-20T01:18:00,kyn,48.05
2023-03-20T01:19:00,kyn,24.14
2023-03-20T01:21:00,kyn,47.81
2023-03-20T01:22:00,kyn,24.14
2023-03-20T01:24:00,kyn,48.05
2023-03-20T01:26:00,kyn,47.81
2023-03-20T01:28:00,kyn,60.00
2023-03-20T01:29:00,kyn,24.14
2023-03-20T01:31:00,kyn,60.00
2023-03-20T01:32:00,kyn,23.91
2023-03-20T01:34:00,kyn,48.05
2023-03-20T01:35:00,kyn,23.91
2023-03-20T01:37:00,kyn,48.05
2023-03-20T01:38:00,kyn,24.14
2023-03-20T01:40:00,kyn,47.81
2023-03-20T01:41:00,kyn,36.09
2023-03-20T01:42:00,kyn,23.91
2023-03-20T01:43:00,kyn,24.14
2023-03-20T01:45:00,kyn,48.05
2023-03-20T01:46:00,kyn,23.91
2023-03-20T01:48:00,kyn,60.00
2023-03-20T01:50:00,kyn,48.05
2023-03-20T01:52:00,kyn,48.05
2023-03-20T01:54:00,kyn,71.95
2023-03-20T01:56:00,kyn,60.00
2023-03-20T01:57:00,kyn,23.91
2023-03-20T01:59:00,kyn,60.00
2023-03-20T02:01:00,kyn,48.05
2023-03-20T02:02:00,kyn,23.91
2023-03-20T02:04:00,kyn,48.05
2023-03-20T02:06:00,kyn,60.00
2023-03-20T02:07:00,kyn,24.14
2023-03-20T02:09:00,kyn,47.81
2023-03-20T02:10:00,kyn,24.14
2023-03-20T02:12:00,kyn,60.00
2023-03-20T02:14:00,kyn,48.05
2023-03-20T02:16:00,kyn,47.81
2023-03-20T02:18:00,kyn,48.05
2023-03-20T02:20:00,kyn,48.05
2023-03-20T02:22:00,kyn,48.05
2023-03-20T02:23:00,kyn,23.91
2023-03-20T02:25:00,kyn,60.00
2023-03-20T02:26:00,kyn,24.14
2023-03-20T02:27:00,kyn,11.95
2023-03-20T02:29:00,kyn,48.05
2023-03-20T02:30:00,kyn,23.91
2023-03-20T02:32:00,kyn,48.05
2023-03-20T02:34:00,kyn,60.00
2023-03-20T02:36:00,kyn,108.05
2023-03-20T02:38:00,kyn,107.81
2023-03-20T02:39:00,kyn,48.05
2023-03-20T02:40:00,kyn,60.00
2023-03-20T02:42:00,kyn,96.09
2023-03-20T02:43:00,kyn,48.05
2023-03-20T02:45:00,kyn,107.81
2023-03-20T02:46:00,kyn,48.05
2023-03-20T02:48:00,kyn,96.09
2023-03-20T02:49:00,kyn,48.05
2023-03-20T02:51:00,kyn,95.86
2023-03-20T02:53:00,kyn,96.09
2023-03-20T02:55:00,kyn,108.05
2023-03-20T02:57:00,kyn,107.81
2023-03-20T02:58:00,kyn,48.05
2023-03-20T03:00:00,kyn,96.09
2023-03-20T03:02:00,kyn,95.86
2023-03-20T03:03:00,kyn,60.00
2023-03-20T03:05:00,kyn,96.09
2023-03-20T03:07:00,kyn,96.09
2023-03-20T03:09:00,kyn,107.81
2023-03-20T03:11:00,kyn,108.05
2023-03-20T03:12:00,kyn,48.05
2023-03-20T03:14:00,kyn,96.09
2023-03-20T03:15:00,kyn,47.81
2023-03-20T03:17:00,kyn,96.09
2023-03-20T03:19:00,kyn,108.05
2023-03-20T03:21:00,kyn,95.86
2023-03-20T03:23:00,kyn,96.09
2023-03-20T03:25:00,kyn,96.09
2023-03-20T03:27:00,kyn,107.81
2023-03-20T03:28:00,kyn,48.05
2023-03-20T03:30:00,kyn,96.09
2023-03-20T03:32:00,kyn,108.05
2023-03-20T03:33:00,kyn,47.81
2023-03-20T03:35:00,kyn,96.09
2023-03-20T03:37:00,kyn,108.05
2023-03-20T03:38:00,kyn,48.05
2023-03-20T03:40:00,kyn,107.81
2023-03-20T03:42:00,kyn,96.09
2023-03-20T03:43:00,kyn,48.05
2023-03-20T03:45:00,kyn,120.00
2023-03-20T03:47:00,kyn,120.00
2023-03-20T03:49:00,kyn,108.05
2023-03-20T03:51:00,kyn,95.86
2023-03-20T03:52:00,kyn,48.05
2023-03-20T03:54:00,kyn,108.05
2023-03-20T03:56:00,kyn,95.86
2023-03-20T03:57:00,kyn,48.05
2023-03-20T03:59:00,kyn,108.05
2023-03-20T04:00:00,kyn,48.05
2023-03-20T04:02:00,kyn,95.86
2023-03-20T04:03:00,kyn,48.05
2023-03-20T04:05:00,kyn,108.05
2023-03-20T04:07:00,kyn,96.09
2023-03-20T04:09:00,kyn,107.81
2023-03-20T04:11:00,kyn,108.05
2023-03-20T04:13:00,kyn,108.05
2023-03-20T04:15:00,kyn,96.09
2023-03-20T04:17:00,kyn,60.00
2023-03-20T04:18:00,kyn,35.86
2023-03-20T04:20:00,kyn,60.00
2023-03-20T04:21:00,kyn,24.14
2023-03-20T04:22:00,kyn,35.86
2023-03-20T04:23:00,kyn,24.14
2023-03-20T04:25:00,kyn,71.95
2023-03-20T04:26:00,kyn,23.91
2023-03-20T04:28:00,kyn,60.00
2023-03-20T04:30:00,kyn,60.00
2023-03-20T04:32:00,kyn,60.00
2023-03-20T04:33:00,kyn,36.09
2023-03-20T04:35:00,kyn,60.00
2023-03-20T04:36:00,kyn,23.91
2023-03-20T04:38:00,kyn,71.95
2023-03-20T04:40:00,kyn,60.00
2023-03-20T04:42:00,kyn,60.00
2023-03-20T04:44:00,kyn,60.00
2023-03-20T04:46:00,kyn,72.19
2023-03-20T04:48:00,kyn,60.00
2023-03-20T04:50:00,kyn,60.00
2023-03-20T04:52:00,kyn,60.00
2023-03-20T04:53:00,kyn,35.86
2023-03-20T04:54:00,kyn,36.09
2023-03-20T04:56:00,kyn,60.00
2023-03-20T04:58:00,kyn,60.00
2023-03-20T04:59:00,kyn,35.86
2023-03-20T05:01:00,kyn,60.00
2023-03-20T05:02:00,kyn,36.09
2023-03-20T05:04:00,kyn,96.09
2023-03-20T05:05:00,kyn,83.91
2023-03-20T05:07:00,kyn,156.09
2023-03-20T05:09:00,kyn,155.86
2023-03-20T05:10:00,kyn,71.95
2023-03-20T05:12:00,kyn,156.09
2023-03-20T05:14:00,kyn,156.09
2023-03-20T05:15:00,kyn,83.91
2023-03-20T05:17:00,kyn,156.09
2023-03-20T05:19:00,kyn,155.86
2023-03-20T05:21:00,kyn,156.09
2023-03-20T05:23:00,kyn,168.05
2023-03-20T05:25:00,kyn,155.86
2023-03-20T05:27:00,kyn,156.09
2023-03-20T05:28:00,kyn,83.91
2023-03-20T05:29:00,kyn,84.14
2023-03-20T05:31:00,kyn,155.86
2023-03-20T05:33:00,kyn,156.09
2023-03-20T05:35:00,kyn,155.86
2023-03-20T05:36:00,kyn,84.14
2023-03-20T05:37:00,kyn,95.86
2023-03-20T05:39:00,kyn,180.00
2023-03-20T05:41:00,kyn,168.05
2023-03-20T05:43:00,kyn,156.09
2023-03-20T05:45:00,kyn,155.86
2023-03-20T05:47:00,kyn,168.05
2023-03-20T05:48:00,kyn,71.95
2023-03-20T05:50:00,kyn,156.09
2023-03-20T05:51:00,kyn,83.91
2023-03-20T05:53:00,kyn,156.09
2023-03-20T05:55:00,kyn,168.05
2023-03-20T05:57:00,kyn,191.95
2023-03-20T05:58:00,kyn,108.05
2023-03-20T05:59:00,kyn,108.05
2023-03-20T06:01:00,kyn,227.81
2023-03-20T06:02:00,kyn,108.05
2023-03-20T06:04:00,kyn,240.00
2023-03-20T06:06:00,kyn,228.05
2023-03-20T06:08:00,kyn,228.05
2023-03-20T06:09:00,kyn,108.05
2023-03-20T06:11:00,kyn,227.81
2023-03-20T06:12:00,kyn,108.05
2023-03-20T06:14:00,kyn,228.05
2023-03-20T06:15:00,kyn,108.05
2023-03-20T06:16:00,kyn,108.05
2023-03-20T06:18:00,kyn,240.00
2023-03-20T06:20:00,kyn,215.86
2023-03-20T06:21:00,kyn,120.00
2023-03-20T06:23:00,kyn,228.05
2023-03-20T06:25:00,kyn,216.09
2023-03-20T06:27:00,kyn,227.81
2023-03-20T06:29:00,kyn,228.05
2023-03-20T06:31:00,kyn,216.09
2023-03-20T06:32:00,kyn,120.00
2023-03-20T06:34:00,kyn,215.86
2023-03-20T06:36:00,kyn,228.05
2023-03-20T06:38:00,kyn,228.05
2023-03-20T06:39:00,kyn,120.00
2023-03-20T06:41:00,kyn,228.05
2023-03-20T06:43:00,kyn,215.86
2023-03-20T06:44:00,kyn,120.00
2023-03-20T06:45:00,kyn,108.05
2023-03-20T06:47:00,kyn,228.05
2023-03-20T06:49:00,kyn,216.09
2023-03-20T06:50:00,kyn,120.00
2023-03-20T06:51:00,kyn,107.81
2023-03-20T06:53:00,kyn,228.05
2023-03-20T06:55:00,kyn,216.09
2023-03-20T06:56:00,kyn,120.00
2023-03-20T06:57:00,kyn,108.05
2023-03-20T06:59:00,kyn,227.81
2023-03-20T07:01:00,kyn,216.09
2023-03-20T07:02:00,kyn,120.00
2023-03-20T07:03:00,kyn,108.05
2023-03-20T07:05:00,kyn,228.05
2023-03-20T07:07:00,kyn,227.81
2023-03-20T07:08:00,kyn,108.05
2023-03-20T07:10:00,kyn,228.05
2023-03-20T07:11:00,kyn,108.05
2023-03-20T07:12:00,kyn,120.00
2023-03-20T07:14:00,kyn,228.05
2023-03-20T07:16:00,kyn,227.81
2023-03-20T07:18:00,kyn,228.05
2023-03-20T07:20:00,kyn,228.05
2023-03-20T07:22:00,kyn,228.05
2023-03-20T07:24:00,kyn,240.00
2023-03-20T07:25:00,kyn,120.00
2023-03-20T07:27:00,kyn,228.05
2023-03-20T07:29:00,kyn,240.00
2023-03-20T07:31:00,kyn,227.81
2023-03-20T07:33:00,kyn,240.00
2023-03-20T07:35:00,kyn,252.19
2023-03-20T07:37:00,kyn,227.81
2023-03-20T07:39:00,kyn,240.00
2023-03-20T07:40:00,kyn,120.00
2023-03-20T07:42:00,kyn,228.05
2023-03-20T07:43:00,kyn,120.00
2023-03-20T07:45:00,kyn,228.05
2023-03-20T07:46:00,kyn,120.00
2023-03-20T07:48:00,kyn,240.00
2023-03-20T07:49:00,kyn,120.00
2023-03-20T07:51:00,kyn,228.05
2023-03-20T07:53:00,kyn,215.86
2023-03-20T07:54:00,kyn,120.00
2023-03-20T07:56:00,kyn,228.05
2023-03-20T07:57:00,kyn,108.05
2023-03-20T07:59:00,kyn,240.00
2023-03-20T08:01:00,kyn,228.05
2023-03-20T08:03:00,kyn,228.05
2023-03-20T08:05:00,kyn,240.00
2023-03-20T08:07:00,kyn,240.00
2023-03-20T08:08:00,kyn,131.95
2023-03-20T08:10:00,kyn,300.00
2023-03-20T08:11:00,kyn,143.91
2023-03-20T08:13:00,kyn,300.00
2023-03-20T08:15:00,kyn,288.05
2023-03-20T08:17:00,kyn,300.00
2023-03-20T08:19:00,kyn,288.05
2023-03-20T08:20:00,kyn,155.86
2023-03-20T08:22:00,kyn,312.19
2023-03-20T08:23:00,kyn,167.81
2023-03-20T08:25:00,kyn,312.19
2023-03-20T08:27:00,kyn,311.95
2023-03-20T08:29:00,kyn,311.95
2023-03-20T08:31:00,kyn,311.95
2023-03-20T08:32:00,kyn,156.09
2023-03-20T08:34:00,kyn,311.95
2023-03-20T08:36:00,kyn,323.91
2023-03-20T08:37:00,kyn,156.09
2023-03-20T08:38:00,kyn,156.09
2023-03-20T08:40:00,kyn,311.95
2023-03-20T08:42:00,kyn,311.95
2023-03-20T08:44:00,kyn,311.95
2023-03-20T08:46:00,kyn,288.05
2023-03-20T08:47:00,kyn,156.09
2023-03-20T08:48:00,kyn,143.91
2023-03-20T08:50:00,kyn,288.05
2023-03-20T08:52:00,kyn,300.00
2023-03-20T08:53:00,kyn,143.91
2023-03-20T08:55:00,kyn,300.00
2023-03-20T08:57:00,kyn,300.00
2023-03-20T08:58:00,kyn,156.09
2023-03-20T09:00:00,kyn,288.05
2023-03-20T09:02:00,kyn,300.00
2023-03-20T09:03:00,kyn,143.91
2023-03-20T09:05:00,kyn,300.00
2023-03-20T09:06:00,kyn,143.91
2023-03-20T09:08:00,kyn,288.05
2023-03-20T09:10:00,kyn,300.00
2023-03-20T09:11:00,kyn,144.14
2023-03-20T09:13:00,kyn,300.00
2023-03-20T09:14:00,kyn,143.91
2023-03-20T09:16:00,kyn,288.05
2023-03-20T09:17:00,kyn,143.91
2023-03-20T09:19:00,kyn,300.00
2023-03-20T09:21:00,kyn,288.05
2023-03-20T09:22:00,kyn,143.91
2023-03-20T09:24:00,kyn,288.05
2023-03-20T09:26:00,kyn,300.00
2023-03-20T09:28:00,kyn,311.95
2023-03-20T09:29:00,kyn,168.05
2023-03-20T09:31:00,kyn,324.14
2023-03-20T09:32:00,kyn,167.81
2023-03-20T09:34:00,kyn,300.00
2023-03-20T09:36:00,kyn,312.19
2023-03-20T09:38:00,kyn,311.95
2023-03-20T09:40:00,kyn,311.95
2023-03-20T09:42:00,kyn,300.00
2023-03-20T09:44:00,kyn,323.91
2023-03-20T09:46:00,kyn,312.19
2023-03-20T09:47:00,kyn,155.86
2023-03-20T09:49:00,kyn,300.00
2023-03-20T09:51:00,kyn,311.95
2023-03-20T09:52:00,kyn,156.09
2023-03-20T09:54:00,kyn,323.91
2023-03-20T09:56:00,kyn,312.19
2023-03-20T09:57:00,kyn,143.91
2023-03-20T09:58:00,kyn,143.91
2023-03-20T10:00:00,kyn,288.05
2023-03-20T10:02:00,kyn,288.05
2023-03-20T10:03:00,kyn,143.91
2023-03-20T10:05:00,kyn,300.00
2023-03-20T10:06:00,kyn,144.14
2023-03-20T10:07:00,kyn,143.91
2023-03-20T10:09:00,kyn,300.00
2023-03-20T10:10:00,kyn,144.14
2023-03-20T10:11:00,kyn,143.91
2023-03-20T10:13:00,kyn,288.05
2023-03-20T10:15:00,kyn,288.05
2023-03-20T10:17:00,kyn,300.00
2023-03-20T10:19:00,kyn,287.81
2023-03-20T10:21:00,kyn,288.05
2023-03-20T10:23:00,kyn,276.09
2023-03-20T10:24:00,kyn,143.91
2023-03-20T10:26:00,kyn,288.05
2023-03-20T10:28:00,kyn,311.95
2023-03-20T10:30:00,kyn,311.95
2023-03-20T10:32:00,kyn,300.00
2023-03-20T10:34:00,kyn,300.00
2023-03-20T10:35:00,kyn,156.09
2023-03-20T10:36:00,kyn,156.09
2023-03-20T10:37:00,kyn,155.86
2023-03-20T10:39:00,kyn,300.00
2023-03-20T10:40:00,kyn,156.09
2023-03-20T10:42:00,kyn,300.00
2023-03-20T10:44:00,kyn,311.95
2023-03-20T10:46:00,kyn,288.05
2023-03-20T10:48:00,kyn,288.05
2023-03-20T10:49:00,kyn,155.86
2023-03-20T10:51:00,kyn,300.00
2023-03-20T10:53:00,kyn,288.05
2023-03-20T10:54:00,kyn,143.91
2023-03-20T10:56:00,kyn,276.09
2023-03-20T10:57:00,kyn,143.91
2023-03-20T10:59:00,kyn,288.05
2023-03-20T11:00:00,kyn,144.14
2023-03-20T11:02:00,kyn,275.86
2023-03-20T11:04:00,kyn,300.00
2023-03-20T11:06:00,kyn,276.09
2023-03-20T11:07:00,kyn,143.91
2023-03-20T11:09:00,kyn,288.05
2023-03-20T11:11:00,kyn,288.05
2023-03-20T11:13:00,kyn,275.86
2023-03-20T11:14:00,kyn,144.14
2023-03-20T11:16:00,kyn,288.05
2023-03-20T11:18:00,kyn,287.81
2023-03-20T11:20:00,kyn,276.09
2023-03-20T11:22:00,kyn,288.05
2023-03-20T11:24:00,kyn,275.86
2023-03-20T11:26:00,kyn,276.09
2023-03-20T11:27:00,kyn,143.91
2023-03-20T11:29:00,kyn,276.09
2023-03-20T11:31:00,kyn,288.05
2023-03-20T11:33:00,kyn,275.86
2023-03-20T11:34:00,kyn,132.19
2023-03-20T11:36:00,kyn,287.81
2023-03-20T11:37:00,kyn,144.14
2023-03-20T11:38:00,kyn,143.91
2023-03-20T11:40:00,kyn,276.09
2023-03-20T11:42:00,kyn,288.05
2023-03-20T11:43:00,kyn,143.91
2023-03-20T11:45:00,kyn,276.09
2023-03-20T11:46:00,kyn,143.91
2023-03-20T11:48:00,kyn,276.09
2023-03-20T11:50:00,kyn,287.81
2023-03-20T11:51:00,kyn,132.19
2023-03-20T11:52:00,kyn,143.91
2023-03-20T11:54:00,kyn,276.09
2023-03-20T11:56:00,kyn,287.81
2023-03-20T11:58:00,kyn,276.09
2023-03-20T11:59:00,kyn,131.95
2023-03-20T12:01:00,kyn,288.05
2023-03-20T12:03:00,kyn,288.05
2023-03-20T12:05:00,kyn,275.86
2023-03-20T12:06:00,kyn,144.14
2023-03-20T12:08:00,kyn,288.05
2023-03-20T12:10:00,kyn,275.86
2023-03-20T12:12:00,kyn,288.05
2023-03-20T12:14:00,kyn,288.05
2023-03-20T12:16:00,kyn,275.86
2023-03-20T12:18:00,kyn,288.05
2023-03-20T12:20:00,kyn,276.09
2023-03-20T12:21:00,kyn,143.91
2023-03-20T12:22:00,kyn,131.95
2023-03-20T12:24:00,kyn,288.05
2023-03-20T12:26:00,kyn,276.09
2023-03-20T12:28:00,kyn,288.05
2023-03-20T12:29:00,kyn,131.95
2023-03-20T12:31:00,kyn,288.05
2023-03-20T12:32:00,kyn,131.95
2023-03-20T12:34:00,kyn,300.00
2023-03-20T12:36:00,kyn,288.05
2023-03-20T12:38:00,kyn,275.86
2023-03-20T12:40:00,kyn,288.05
2023-03-20T12:42:00,kyn,276.09
2023-03-20T12:44:00,kyn,275.86
2023-03-20T12:45:00,kyn,144.14
2023-03-20T12:47:00,kyn,287.81
2023-03-20T12:49:00,kyn,276.09
2023-03-20T12:50:00,kyn,131.95
2023-03-20T12:52:00,kyn,288.05
2023-03-20T12:54:00,kyn,276.09
2023-03-20T12:56:00,kyn,287.81
2023-03-20T12:57:00,kyn,132.19
2023-03-20T12:59:00,kyn,287.81
2023-03-20T13:01:00,kyn,276.09
2023-03-20T13:02:00,kyn,143.91
2023-03-20T13:03:00,kyn,132.19
2023-03-20T13:05:00,kyn,287.81
2023-03-20T13:06:00,kyn,144.14
2023-03-20T13:08:00,kyn,275.86
2023-03-20T13:10:00,kyn,276.09
2023-03-20T13:11:00,kyn,143.91
2023-03-20T13:12:00,kyn,132.19
2023-03-20T13:14:00,kyn,287.81
2023-03-20T13:15:00,kyn,144.14
2023-03-20T13:16:00,kyn,143.91
2023-03-20T13:17:00,kyn,131.95
2023-03-20T13:19:00,kyn,288.05
2023-03-20T13:21:00,kyn,276.09
2023-03-20T13:23:00,kyn,288.05
2023-03-20T13:24:00,kyn,131.95
2023-03-20T13:26:00,kyn,288.05
2023-03-20T13:28:00,kyn,275.86
2023-03-20T13:30:00,kyn,276.09
2023-03-20T13:32:00,kyn,275.86
2023-03-20T13:34:00,kyn,276.09
2023-03-20T13:35:00,kyn,143.91
2023-03-20T13:37:00,kyn,276.09
2023-03-20T13:39:00,kyn,288.05
2023-03-20T13:40:00,kyn,143.91
2023-03-20T13:42:00,kyn,276.09
2023-03-20T13:44:00,kyn,275.86
2023-03-20T13:46:00,kyn,276.09
2023-03-20T13:48:00,kyn,288.05
2023-03-20T13:49:00,kyn,143.91
2023-03-20T13:50:00,kyn,131.95
2023-03-20T13:52:00,kyn,288.05
2023-03-20T13:53:00,kyn,144.14
2023-03-20T13:54:00,kyn,143.91
2023-03-20T13:56:00,kyn,276.09
2023-03-20T13:57:00,kyn,143.91
2023-03-20T13:58:00,kyn,131.95
2023-03-20T14:00:00,kyn,288.05
2023-03-20T14:02:00,kyn,288.05
2023-03-20T14:04:00,kyn,275.86
2023-03-20T14:05:00,kyn,144.14
2023-03-20T14:07:00,kyn,275.86
2023-03-20T14:08:00,kyn,144.14
2023-03-20T14:10:00,kyn,275.86
2023-03-20T14:12:00,kyn,276.09
2023-03-20T14:14:00,kyn,288.05
2023-03-20T14:16:00,kyn,275.86
2023-03-20T14:18:00,kyn,276.09
2023-03-20T14:20:00,kyn,276.09
2023-03-20T14:22:00,kyn,287.81
2023-03-20T14:24:00,kyn,312.19
2023-03-20T14:26:00,kyn,275.86
2023-03-20T14:28:00,kyn,276.09
2023-03-20T14:29:00,kyn,143.91
2023-03-20T14:31:00,kyn,276.09
2023-03-20T14:33:00,kyn,275.86
2023-03-20T14:35:00,kyn,288.05
2023-03-20T14:37:00,kyn,276.09
2023-03-20T14:38:00,kyn,131.95
2023-03-20T14:40:00,kyn,276.09
2023-03-20T14:41:00,kyn,143.91
2023-03-20T14:43:00,kyn,276.09
2023-03-20T14:45:00,kyn,275.86
2023-03-20T14:46:00,kyn,144.14
2023-03-20T14:47:00,kyn,131.95
2023-03-20T14:49:00,kyn,275.86
2023-03-20T14:51:00,kyn,276.09
2023-03-20T14:52:00,kyn,143.91
2023-03-20T14:54:00,kyn,276.09
2023-03-20T14:55:00,kyn,143.91
2023-03-20T14:57:00,kyn,276.09
2023-03-20T14:59:00,kyn,288.05
2023-03-20T15:00:00,kyn,143.91
2023-03-20T15:02:00,kyn,276.09
2023-03-20T15:04:00,kyn,275.86
2023-03-20T15:05:00,kyn,144.14
2023-03-20T15:07:00,kyn,275.86
2023-03-20T15:08:00,kyn,144.14
2023-03-20T15:10:00,kyn,275.86
2023-03-20T15:12:00,kyn,276.09
2023-03-20T15:14:00,kyn,276.09
2023-03-20T15:15:00,kyn,143.91
2023-03-20T15:16:00,kyn,131.95
2023-03-20T15:18:00,kyn,288.05
2023-03-20T15:20:00,kyn,288.05
2023-03-20T15:21:00,kyn,143.91
2023-03-20T15:22:00,kyn,156.09
2023-03-20T15:24:00,kyn,300.00
2023-03-20T15:26:00,kyn,263.91
2023-03-20T15:27:00,kyn,131.95
2023-03-20T15:29:00,kyn,240.00
2023-03-20T15:31:00,kyn,252.19
2023-03-20T15:33:00,kyn,251.95
2023-03-20T15:35:00,kyn,263.91
2023-03-20T15:37:00,kyn,240.00
2023-03-20T15:39:00,kyn,251.95
2023-03-20T15:40:00,kyn,132.19
2023-03-20T15:42:00,kyn,240.00
2023-03-20T15:43:00,kyn,131.95
2023-03-20T15:45:00,kyn,240.00
2023-03-20T15:46:00,kyn,120.00
2023-03-20T15:48:00,kyn,191.95
2023-03-20T15:49:00,kyn,96.09
2023-03-20T15:51:00,kyn,180.00
2023-03-20T15:53:00,kyn,191.95
2023-03-20T15:55:00,kyn,180.00
2023-03-20T15:57:00,kyn,191.95
2023-03-20T15:59:00,kyn,191.95
2023-03-20T16:00:00,kyn,84.14
2023-03-20T16:02:00,kyn,191.95
2023-03-20T16:03:00,kyn,95.86
2023-03-20T16:04:00,kyn,96.09
2023-03-20T16:06:00,kyn,180.00
2023-03-20T16:07:00,kyn,96.09
2023-03-20T16:09:00,kyn,191.95
2023-03-20T16:11:00,kyn,203.91
2023-03-20T16:13:00,kyn,204.14
2023-03-20T16:15:00,kyn,180.00
2023-03-20T16:17:00,kyn,191.95
2023-03-20T16:18:00,kyn,83.91
2023-03-20T16:20:00,kyn,180.00
2023-03-20T16:22:00,kyn,191.95
2023-03-20T16:24:00,kyn,180.00
2023-03-20T16:25:00,kyn,96.09
2023-03-20T16:26:00,kyn,83.91
2023-03-20T16:28:00,kyn,192.19
2023-03-20T16:29:00,kyn,83.91
2023-03-20T16:30:00,kyn,96.09
2023-03-20T16:32:00,kyn,191.95
2023-03-20T16:33:00,kyn,95.86
2023-03-20T16:35:00,kyn,180.00
2023-03-20T16:37:00,kyn,180.00
2023-03-20T16:38:00,kyn,96.09
2023-03-20T16:40:00,kyn,180.00
2023-03-20T16:41:00,kyn,96.09
2023-03-20T16:43:00,kyn,191.95
2023-03-20T16:44:00,kyn,95.86
2023-03-20T16:46:00,kyn,192.19
2023-03-20T16:47:00,kyn,95.86
2023-03-20T16:49:00,kyn,180.00
2023-03-20T16:50:00,kyn,96.09
2023-03-20T16:51:00,kyn,83.91
2023-03-20T16:52:00,kyn,96.09
2023-03-20T16:54:00,kyn,180.00
2023-03-20T16:56:00,kyn,191.95
2023-03-20T16:58:00,kyn,180.00
2023-03-20T17:00:00,kyn,191.95
2023-03-20T17:02:00,kyn,191.95
2023-03-20T17:04:00,kyn,180.00
2023-03-20T17:06:00,kyn,192.19
2023-03-20T17:08:00,kyn,180.00
2023-03-20T17:09:00,kyn,95.86
2023-03-20T17:11:00,kyn,180.00
2023-03-20T17:12:00,kyn,96.09
2023-03-20T17:14:00,kyn,83.91
2023-03-20T17:15:00,kyn,36.09
2023-03-20T17:17:00,kyn,95.86
2023-03-20T17:18:00,kyn,36.09
2023-03-20T17:19:00,kyn,48.05
2023-03-20T17:20:00,kyn,48.05
2023-03-20T17:22:00,kyn,83.91
2023-03-20T17:24:00,kyn,96.09
2023-03-20T17:25:00,kyn,35.86
2023-03-20T17:26:00,kyn,48.05
2023-03-20T17:28:00,kyn,83.91
2023-03-20T17:29:00,kyn,36.09
2023-03-20T17:31:00,kyn,96.09
2023-03-20T17:32:00,kyn,35.86
2023-03-20T17:34:00,kyn,84.14
2023-03-20T17:35:00,kyn,35.86
2023-03-20T17:36:00,kyn,48.05
2023-03-20T17:37:00,kyn,36.09
2023-03-20T17:38:00,kyn,35.86
2023-03-20T17:40:00,kyn,84.14
2023-03-20T17:42:00,kyn,83.91
2023-03-20T17:43:00,kyn,48.05
2023-03-20T17:45:00,kyn,83.91
2023-03-20T17:46:00,kyn,36.09
2023-03-20T17:47:00,kyn,48.05
2023-03-20T17:49:00,kyn,71.95
2023-03-20T17:51:00,kyn,83.91
2023-03-20T17:52:00,kyn,48.05
2023-03-20T17:54:00,kyn,83.91
2023-03-20T17:56:00,kyn,84.14
2023-03-20T17:57:00,kyn,35.86
2023-03-20T17:59:00,kyn,84.14
2023-03-20T18:00:00,kyn,48.05
2023-03-20T18:02:00,kyn,95.86
2023-03-20T18:03:00,kyn,48.05
2023-03-20T18:05:00,kyn,60.00
2023-03-20T18:07:00,kyn,71.95
2023-03-20T18:08:00,kyn,36.09
2023-03-20T18:10:00,kyn,71.95
2023-03-20T18:11:00,kyn,36.09
2023-03-20T18:13:00,kyn,71.95
2023-03-20T18:14:00,kyn,35.86
2023-03-20T18:16:00,kyn,60.00
2023-03-20T18:18:00,kyn,72.19
2023-03-20T18:19:00,kyn,35.86
2023-03-20T18:21:00,kyn,60.00
2023-03-20T18:22:00,kyn,36.09
2023-03-20T18:23:00,kyn,35.86
2023-03-20T18:25:00,kyn,60.00
2023-03-20T18:26:00,kyn,24.14
2023-03-20T18:27:00,kyn,48.05
2023-03-20T18:29:00,kyn,71.95
2023-03-20T18:31:00,kyn,60.00
2023-03-20T18:32:00,kyn,35.86
2023-03-20T18:34:00,kyn,72.19
2023-03-20T18:36:00,kyn,60.00
2023-03-20T18:37:00,kyn,35.86
2023-03-20T18:39:00,kyn,71.95
2023-03-20T18:41:00,kyn,72.19
2023-03-20T18:42:00,kyn,23.91
2023-03-20T18:44:00,kyn,71.95
2023-03-20T18:46:00,kyn,60.00
2023-03-20T18:48:00,kyn,71.95
2023-03-20T18:50:00,kyn,72.19
2023-03-20T18:52:00,kyn,71.95
2023-03-20T18:53:00,kyn,35.86
2023-03-20T18:55:00,kyn,72.19
2023-03-20T18:56:00,kyn,72.19
2023-03-20T18:57:00,kyn,35.86
2023-03-20T18:58:00,kyn,71.95
2023-03-20T19:00:00,kyn,60.00
2023-03-20T19:02:00,kyn,72.19
2023-03-20T19:03:00,kyn,35.86
2023-03-20T19:05:00,kyn,71.95
2023-03-20T19:07:00,kyn,60.00
2023-03-20T19:09:00,kyn,72.19
2023-03-20T19:11:00,kyn,71.95
2023-03-20T19:13:00,kyn,60.00
2023-03-20T19:15:00,kyn,71.95
2023-03-20T19:16:00,kyn,36.09
2023-03-20T19:17:00,kyn,23.91
2023-03-20T19:18:00,kyn,36.09
2023-03-20T19:20:00,kyn,71.95
2023-03-20T19:22:00,kyn,60.00
2023-03-20T19:23:00,kyn,35.86
2023-03-20T19:25:00,kyn,72.19
2023-03-20T19:26:00,kyn,35.86
2023-03-20T19:28:00,kyn,71.95
2023-03-20T19:30:00,kyn,60.00
2023-03-20T19:31:00,kyn,36.09
2023-03-20T19:32:00,kyn,36.09
2023-03-20T19:34:00,kyn,71.95
2023-03-20T19:35:00,kyn,23.91
2023-03-20T19:36:00,kyn,36.09
2023-03-20T19:38:00,kyn,83.91
2023-03-20T19:39:00,kyn,36.09
2023-03-20T19:41:00,kyn,60.00
2023-03-20T19:42:00,kyn,35.86
2023-03-20T19:43:00,kyn,24.14
2023-03-20T19:45:00,kyn,71.95
2023-03-20T19:46:00,kyn,36.09
2023-03-20T19:47:00,kyn,23.91
2023-03-20T19:49:00,kyn,71.95
2023-03-20T19:51:00,kyn,84.14
2023-03-20T19:53:00,kyn,83.91
2023-03-20T19:54:00,kyn,36.09
2023-03-20T19:56:00,kyn,60.00
2023-03-20T19:57:00,kyn,35.86
2023-03-20T19:59:00,kyn,60.00
2023-03-20T20:01:00,kyn,60.00
2023-03-20T20:03:00,kyn,60.00
2023-03-20T20:05:00,kyn,60.00
2023-03-20T20:06:00,kyn,36.09
2023-03-20T20:07:00,kyn,35.86
2023-03-20T20:09:00,kyn,60.00
2023-03-20T20:10:00,kyn,36.09
2023-03-20T20:12:00,kyn,60.00
2023-03-20T20:14:00,kyn,60.00
2023-03-20T20:15:00,kyn,36.09
2023-03-20T20:17:00,kyn,60.00
2023-03-20T20:19:00,kyn,60.00
2023-03-20T20:21:00,kyn,71.95
2023-03-20T20:23:00,kyn,60.00
2023-03-20T20:24:00,kyn,23.91
2023-03-20T20:26:00,kyn,60.00
2023-03-20T20:28:00,kyn,60.00
2023-03-20T20:30:00,kyn,60.00
2023-03-20T20:31:00,kyn,36.09
2023-03-20T20:32:00,kyn,23.91
2023-03-20T20:34:00,kyn,71.95
2023-03-20T20:36:00,kyn,60.00
2023-03-20T20:38:00,kyn,60.00
2023-03-20T20:39:00,kyn,36.09
2023-03-20T20:41:00,kyn,60.00
2023-03-20T20:43:00,kyn,60.00
2023-03-20T20:45:00,kyn,71.95
2023-03-20T20:46:00,kyn,24.14
2023-03-20T20:48:00,kyn,71.95
2023-03-20T20:50:00,kyn,60.00
2023-03-20T20:52:00,kyn,71.95
2023-03-20T20:53:00,kyn,23.91
2023-03-20T20:55:00,kyn,72.19
2023-03-20T20:57:00,kyn,60.00
2023-03-20T20:59:00,kyn,60.00
2023-03-20T21:01:00,kyn,60.00
2023-03-20T21:03:00,kyn,71.95
2023-03-20T21:05:00,kyn,60.00
2023-03-20T21:07:00,kyn,60.00
2023-03-20T21:08:00,kyn,35.86
2023-03-20T21:09:00,kyn,24.14
2023-03-20T21:11:00,kyn,60.00
2023-03-20T21:12:00,kyn,35.86
2023-03-20T21:14:00,kyn,60.00
2023-03-20T21:16:00,kyn,60.00
2023-03-20T21:18:00,kyn,60.00
2023-03-20T21:19:00,kyn,48.05
2023-03-20T21:21:00,kyn,60.00
2023-03-20T21:22:00,kyn,36.09
2023-03-20T21:24:00,kyn,60.00